Regional Weather Roundup
Issued by NWS

Home | Current Version | Previous Version | Graphics & Text | Print | Product List | Glossary On
Versions: 1 2 3 4 5 6 7 8 9 10 11 12 13 14 15 16 17 18 19 20 21 22 23 24 25 26 27 28 29 30 31 32 33 34 35 36 37 38 39 40 41 42 43 44 45 46 47 48 49 50
010
ASUS45 KSLC 231110
RWRUT

UTAH REGIONAL WEATHER ROUNDUP
NATIONAL WEATHER SERVICE SALT LAKE CITY UT
400 AM MST TUE JAN 23 2018

UTZ001>011-023>025-231200-

NORTHERN UTAH

CITY           SKY/WX    TMP DP  RH WIND       PRES   REMARKS
BRIGHAM CITY   CLOUDY    24  21  89 CALM      30.36R
HILL AFB       CLOUDY    25  18  73 SE3       30.32S
LOGAN          HAZE      15  10  80 CALM      30.34R VSB 1/2
OGDEN          CLOUDY    26  18  71 SE3       30.33R
SALT LAKE CITY PTCLDY    27  23  85 E6        30.34R WCI  20
TOOELE VALLEY  PTCLDY    23  18  80 S8        30.35R WCI  14
WENDOVER       CLEAR     22  17  81 NW3       30.34R
HEBER CITY     FLURRIES  16  12  86 CALM      30.30S
WEST JORDAN    MOCLDY    25  21  86 S6        30.33S WCI  18

$$

UTZ011>015-024>027-231200-

CENTRAL/NORTHEAST UTAH

CITY           SKY/WX    TMP DP  RH WIND       PRES   REMARKS
PROVO AIRPORT  CLEAR     15  12  88 CALM      30.36S
MOAB/CANYONLAN CLEAR     22  19  89 CALM      30.31S
DELTA          PTCLDY    14  14 100 N3        30.33S
PRICE          CLEAR     14  10  84 NE3       30.27S
ROOSEVELT      CLEAR     10   5  79 SW5       30.35S WCI   2
VERNAL         PTCLDY     7   2  80 W3        30.32F

$$

UTZ013>016-019>022-027-231200-

SOUTHERN UTAH

CITY           SKY/WX    TMP DP  RH WIND       PRES   REMARKS
BRYCE CANYON   CLEAR      5   2  87 W8        30.26F WCI  -8
CEDAR CITY     PTCLDY     8   4  83 CALM      30.27S
MILFORD        PTCLDY     5   3  91 SE3       30.31S
ST GEORGE      SUNNY     31  25  78 CALM      30.32S
HANKSVILLE     CLEAR     14   7  73 NE3       30.35S
BLANDING         N/A     18  11  74 CALM      30.34S

$$

REGIONAL REPORTS     COLORADO/ARIZONA

CITY           SKY/WX    TMP DP  RH WIND       PRES   REMARKS
CRAIG, CO      PTCLDY     9   6  88 S3        30.26F
GRAND JUNCTION PTCLDY    15  13  91 E5        30.33R WCI   8
RIFLE, CO      CLOUDY    24  20  84 CALM      30.31S
MONTROSE, CO   CLEAR     18  11  74 E5        30.33S WCI  11
CORTEZ, CO     CLEAR      6   3  87 NE7       30.27F WCI  -6
COLORADO CITY    N/A     19  16  86 CALM      30.30S
PAGE, AZ       CLEAR     27  12  53 SE3       30.30S
GRAND CANYON   CLEAR     14   6  70 CALM      30.24S
KINGMAN, AZ    CLEAR    N/A N/A N/A E7        30.23S
FLAGSTAFF, AZ  CLEAR     18   2  49 E7        30.22S WCI   9

$$

REGIONAL REPORTS    NEVADA/IDAHO/WYOMING

CITY           SKY/WX    TMP DP  RH WIND       PRES   REMARKS
LAS VEGAS, NV  PTCLDY    39  27  62 SW3       30.26S
ELY, NY        PTCLDY     4   1  88 S15       30.29F WCI -14
ELKO, NV       CLEAR     19  16  88 CALM      30.29S
POCATELLO, ID  MOCLDY    29  23  78 SW9       30.30F WCI  20
BURLEY, ID     CLEAR     26  20  77 W5        30.29S WCI  20
FORT BRIDGER,    N/A     20  17  89 W8        30.26S WCI  10
EVANSTON, WY   CLOUDY    21  19  92 SW6       30.24R WCI  13
ROCK SPRINGS,  CLEAR     16  12  84 SW16      30.21S WCI   1

$$




USA.gov is the U.S. government's official web portal to all federal, state and local government web resources and services.